Regional Weather Roundup
Issued by NWS Wakefield, VA

Home | Current Version | Previous Version | Text Only | Print | Product List | Glossary Off
Versions: 1 2 3 4 5 6 7 8 9 10 11 12 13 14 15 16 17 18 19 20 21 22 23 24 25 26 27 28 29 30 31 32 33 34 35 36 37 38 39 40 41 42 43 44 45 46 47 48 49 50

000
ASUS41 KAKQ 251514
RWRAKQ

REGIONAL WEATHER ROUNDUP
NATIONAL WEATHER SERVICE WAKEFIELD VA
1100 AM EDT MON MAY 25 2015

Note: "fair" indicates few or no clouds below 12,000 feet with no
significant weather and/or obstructions to visibility. * = Denotes
station may not report precipitation (e.g., rain,snow,etc.),
thunder or fog.

VAZ042-051-052>054-056-251600-
NORTHERN VIRGINIA

CITY           SKY/WX    TMP DP  RH WIND       PRES   REMARKS
WASH NATIONAL  PTSUNNY   79  61  53 S13       30.28S
DULLES         MOSUNNY   77  60  55 SW12G17   30.27S
FORT BELVOIR   SUNNY     78  62  56 VRB7      30.28S
QUANTICO       SUNNY     79  57  46 SW13G18   30.29S
FREDERICKSBRG* SUNNY     80  60  50 SW14G21   30.29F
STAFFORD*      SUNNY     78  57  47 S9        30.33S
WARRENTON      SUNNY     79  64  59 S10G18    30.28S
CULPEPER*      SUNNY     76  60  56 SW10G17   30.28F
MANASSAS*      SUNNY     79  61  53 SW13      30.28S
LEESBURG*      SUNNY     79  63  57 S14       30.28R
WINCHESTER     SUNNY     79  52  38 SW5       30.25F
FRONT ROYAL*   FAIR      77  61  57 SW3       30.25S
LURAY*         FAIR      79  61  53 S9G16     30.27S
$$

VAZ048-049-060>072-079>083-251600-
CENTRAL AND SOUTH CENTRAL VIRGINIA

CITY           SKY/WX    TMP DP  RH WIND       PRES   REMARKS
RICHMOND       MOSUNNY   78  56  46 SW13G22   30.32F
CHESTERFIELD*  NOT AVBL
PETERSBURG*    SUNNY     79  57  46 SW8       30.34S
HANOVER        SUNNY     77  57  50 SW8G18    30.33F
TAPPAHANNOCK*  SUNNY     78  51  38 S8        30.33S
QUINTON*       FAIR      76  59  55 SW6       30.33F
CHARLOTTSVILLE SUNNY     78  59  51 S13G20    30.29S
GORDONSVILLE*  FAIR      75  58  55 SW14G24   30.29F
ORANGE*        SUNNY     77  59  53 S17G24    30.31S
LOUISA*        SUNNY     79  61  53 SW8       30.30F
BUMPASS*       FAIR      76  59  57 SW7G18    30.31S
FARMVILLE*     SUNNY     76  57  52 S12       30.31F
CREWE*         FAIR      76  57  50 SW8       30.33S
FORT PICKETT*  FAIR      75  59  57 SW12G23   30.34F
CHASE CITY*    FAIR      77  60  55 SW5       30.34F
CLARKSVILLE*   FAIR      75  57  53 S9G16     30.34F
SOUTH HILL*    SUNNY     75  60  58 S12       30.40F
LAWRENCEVILLE* FAIR      75  61  60 S5        30.34F
EMPORIA*       SUNNY     77  59  53 S6        30.36F
$$

VAZ088>098-251600-
SOUTHEAST VIRGINIA

CITY           SKY/WX    TMP DP  RH WIND       PRES   REMARKS
NORFOLK        SUNNY     78  57  48 SW12      30.35S
VIRGINIA BEACH PTSUNNY   78  61  55 VRB7      30.34F
NORFOLK NAVAL  MOSUNNY   81  59  47 SW10      30.36F
WEST POINT*    SUNNY     80  56  43 S7        30.34F
SALUDA*        FAIR      76  60  55 SW7G17    30.33S
NEWPORT NEWS   SUNNY     81  60  48 S12       30.35S
LANGLEY AFB    SUNNY     77  61  58 W13       30.33F
FORT EUSTIS    SUNNY     77  61  58 VRB6      30.33S
WILLIAMSBURG*  SUNNY     81  63  54 SW6       30.35S
HR EXEC AP*    FAIR      79  63  57 SW8       30.36F
FRANKLIN*      SUNNY     77  59  53 S8        30.35F
WAKEFIELD      SUNNY     77  60  55 S9        30.34F
$$

VAZ020-022-025-037-045-251600-
WEST CENTRAL AND SOUTHWEST VIRGINIA

CITY           SKY/WX    TMP DP  RH WIND       PRES   REMARKS
STAUNTON*      SUNNY     77  56  48 SW14G22   30.31F
WAYNESBORO*    FAIR      73  58  57 SW10      30.31S
HOT SPRINGS VA MOSUNNY   64  55  72 S6        30.37S
LYNCHBURG      MOSUNNY   73  59  61 S14       30.33F
DANVILLE       SUNNY     75  57  53 VRB6      30.34F
SOUTH BOSTON*  FAIR      76  58  52 MISG      30.34S
MARTINSVILLE   PTSUNNY   74  58  58 W8        30.36S
ROANOKE        MOSUNNY   74  58  57 CALM      30.33F
BLACKSBURG     PTSUNNY   68  57  66 S7        30.37S
DUBLIN*        MOSUNNY   73  57  56 S10       30.35S
MARION*        SUNNY     75  54  48 CALM      30.35F
HILLSVILLE*    SUNNY     66  57  71 S14G23    30.37R
RICHLANDS*     FAIR      72  52  49 S6        30.32S
WISE*          SUNNY     72  50  46 S12       30.32F
ABINGDON*      SUNNY     75  55  50 W5        30.32S
$$

MDZ021>025-VAZ099-100-251600-
SOUTHERN MARYLAND AND THE DELMARVA PENINSULA

CITY           SKY/WX    TMP DP  RH WIND       PRES   REMARKS
PATUXENT RIVER SUNNY     78  58  49 SW10      30.31S HAZE
BAY BRIDGE APT   N/A    N/A N/A N/A S9        30.28F
LEONARDTOWN    SUNNY     75  57  53 SW9       30.32S
DOVER          SUNNY     80  63  56 S15       30.26F
GEORGETOWN     SUNNY     78  59  51 SW15      30.31F
EASTON         SUNNY     77  63  61 SW12G23   30.33F
CAMBRIDGE      SUNNY     77  55  47 SW9       30.30F
SALISBURY      SUNNY     76  58  53 SW14      30.32F
OCEAN CITY     SUNNY     78  60  53 SW12G17   30.33F
WALLOPS ISLAND SUNNY     77  59  53 W10       30.34F
ACCOMACK*      SUNNY     77  61  57 SW12      30.34F
$$

NCZ012>017-030>032-251600-
NORTH CENTRAL AND EASTERN NORTH CAROLINA

CITY           SKY/WX    TMP DP  RH WIND       PRES   REMARKS
ROANOKE RAPIDS FAIR      75  59  57 S8        30.35F
RALEIGH        MOSUNNY   76  60  57 SW9       30.36S
ELIZABETH CITY SUNNY     76  59  55 S8        30.37S
AHOSKIE*       SUNNY     75  59  57 S7        30.36F
EDENTON*       SUNNY     76  60  57 SW7       30.37S
CURRITUCK*     SUNNY     77  56  48 S5        30.37S
KILL DEVIL HLS SUNNY     77  54  44 CALM      30.36F
MANTEO         SUNNY     75  56  52 S7        30.37F
CAPE HATTERAS  SUNNY     76  56  49 S7        30.38S
TARBORO*       FAIR      77  59  53 S8        30.36F
GOLDSBORO      SUNNY     77  58  52 SE9       30.33F
WASHINGTON     SUNNY     75  58  55 S3        30.37S
GREENVILLE     SUNNY     77  57  50 S7        30.36F
NEW BERN       SUNNY     78  59  51 SE9       30.37F
WILMINGTON     SUNNY     77  59  53 SE8       30.36R
$$

VAZ048-251600-
ELSEWHERE

CITY           SKY/WX    TMP DP  RH WIND       PRES   REMARKS
HARRISBURG PA  SUNNY     79  60  52 S8        30.23F
BALTIMORE      MOSUNNY   78  60  53 SW7       30.26F
ANNAPOLIS      SUNNY     77  60  55 S10       30.27F
ANDREWS AFB    SUNNY     78  61  56 S15       30.28S
PHILADELPHIA   MOSUNNY   79  58  48 SW13      30.27F
HENDERSON NC   SUNNY     75  55  49 S13       30.35F
GREENSBORO     PTSUNNY   72  56  57 SW9       30.34F
ROCKY MOUNT    SUNNY     77  59  53 VRB7      30.36S
$$

VAZ100-251600-
MARINE

STATION/POSITION TIME  TEMP    WIND        PRES    WAVE   SWELL
                       AIR SEA DIR/SP/G            HT/PER HT/PER
                 (UTC) (F)     (DEG/KT/KT) (MB)    (FT/S) (FT/S)
BRANDYWINE LGT   1400   70 65  250/ 13/ 14 1026.5F
CAPE MAY NJ      1400   70 67  220/  5/  8 1026.3F
LEWES DE         1400   75 62  260/ 13/ 18 1026.3F
15NM E FENWICK I 1450   62 60              1027.0S   2/ 4
OCEAN-CITY-INLET 1400   68 65  200/  6/ 10 1026.9F
WACHAPREAGUE VA  1400   75 69  260/  8/ 10 1027.7F
THOMAS POINT MD  1500   69 66  160/ 10/ 11 1025.9F
GOOSES REEF MD   1500   72 66  240/ 12/ 16 1026.7R   2/ 3
SOLOMONS ISLAND  1400      69                N/A
BISHOPS HEAD MD  1400   70 69  220/ 10/ 13 1026.6F
PINEY POINT MD   1400          250/  5/  7   N/A
CAMBRIDGE MD     1400   75 70  220/  6/ 14 1026.1F
LEWISETTA VA     1400   74 69              1026.4F
RAPPAHANNOCK LGT 1400          190/  9/ 11 1028.2R
STINGRAY PT      1500   73 70  230/ 10/ 12 1027.2F   1/ 2
YORK RVR RNG VA  1400   73     260/ 11/ 12 1026.9S
YORKTOWN VA      1400   73 71  230/ 12/ 17 1027.0F
JAMESTOWN VA     1500   74 74  230/  8/ 12 1026.4F
DOMINION TERM VA 1400   71     220/  5/  7 1027.9R
KIPTOPEKE VA     1400      72  230/  4/  5   N/A
CHES BAY BRIDGE  1400   72 69  220/ 11/ 11 1027.4R
CAPE HENRY VA    1400   74     210/  9/ 11 1026.7R
CHESAPEAKE LGHT  1400   66     180/ 12/ 12 1028.7R
WILLOUBY STN VA  1400   71     250/ 11/ 12 1028.3S
CAPE HENRY BUOY  1428      65                N/A     1/ 8
1ST LANDING BUOY 1500      69              1027.4F
CAPE CHARLES BUO 1426      67                N/A     1/ 8   2/ 8
OFFSHORE WE BUOY 1411      65                N/A     2/ 9   2/ 9
64NM E OF VA BCH 1450   65 63  160/  4/  4 1028.5S   1/ 8   2/ 8
DUCK PIER NC     1400   68 63  140/  9/ 10 1027.4F
44100 DUCK FRF   1424      65                N/A     1/ 8
44056 DUCK FRF   1411      64                N/A     1/ 8
OREGON INLET NC  1400   72 72  180/  7/  9 1028.6R
HATTERAS NC      1400   74 73  150/  6/  7 1028.2R
DIAMOND SHLS NC  1450   73 77  150/  6/  8 1028.9R   2/ 7   2/ 7
CAPE LOOKOUT NC  1500   73     120/  8/  9 1028.0F
$$


USA.gov is the U.S. government's official web portal to all federal, state and local government web resources and services.